Regional Weather Roundup
Issued by NWS

Home | Current Version | Previous Version | Graphics & Text | Print | Product List | Glossary On
Versions: 1 2 3 4 5 6 7 8 9 10 11 12 13 14 15 16 17 18 19 20 21 22 23 24 25 26 27 28 29 30 31 32 33 34 35 36 37 38 39 40 41 42 43 44 45 46 47 48 49 50
000
ASUS43 KOAX 101610
RWRNE

WEATHER ROUNDUP FOR NEBRASKA
NATIONAL WEATHER SERVICE OMAHA NE
1000 AM CST WED FEB 10 2016

NOTES: SATELLITE DATA IS BEING USED TO AUGMENT CLOUD COVER ABOVE
       12000 FEET.
       "FAIR" INDICATES FEW OR NO CLOUDS BELOW 12,000 FEET WITH NO
       SIGNIFICANT WEATHER AND/OR OBSTRUCTIONS TO VISIBILITY.

  * THESE STATIONS DO NOT REPORT WEATHER SUCH AS RAIN...SNOW OR FOG.

NEZ001>004-019>022-054>056-101700-
NEBRASKA PANHANDLE

CITY           SKY/WX    TMP DP  RH WIND       PRES   REMARKS
SCOTTSBLUFF    SUNNY     44  26  49 NW15      30.04S
ALLIANCE       SUNNY     37  27  67 W9        30.00S WCI  30
CHADRON        SUNNY     47  26  44 W8        30.00F
KIMBALL        SUNNY     46  23  40 W23       30.08S
SIDNEY         CLOUDY    45  27  49 W17       30.05R
$$

NEZ057>060-069>072-079>082-101700-
SOUTHWEST NEBRASKA

CITY           SKY/WX    TMP DP  RH WIND       PRES   REMARKS
NORTH PLATTE   SUNNY     40  27  59 W14       29.96R WCI  32
IMPERIAL       SUNNY     40  25  55 W16       30.01S WCI  31
LEXINGTON      SUNNY     34  26  74 NW5       29.95R WCI  30
MCCOOK         SUNNY     38  26  62 W8        29.99S WCI  32
OGALLALA       SUNNY     36  25  63 SW10      30.02R WCI  29
$$

NEZ005>010-023>029-035>040-094-101700-
NORTH CENTRAL NEBRASKA

CITY           SKY/WX    TMP DP  RH WIND       PRES   REMARKS
VALENTINE      SUNNY     42  28  57 W8        29.87F
AINSWORTH      SUNNY     45  29  54 W8        29.87S
BROKEN BOW     SUNNY     45  27  49 NW17      29.90S
O`NEILL        SUNNY     38  30  73 NW6       29.87F WCI  33
ORD            SUNNY     33  26  75 N3        29.89S
THEDFORD       SUNNY     48  30  49 W15G21    29.91S
$$

NEZ041-046>049-061>064-073>077-083>087-101700-
SOUTH CENTRAL NEBRASKA

CITY           SKY/WX    TMP DP  RH WIND       PRES   REMARKS
GRAND ISLAND   SUNNY     36  26  67 W15       29.91S WCI  27
AURORA         SUNNY     33  27  80 W10       29.90S WCI  24
HASTINGS       SUNNY     37  26  64 W15       29.92S WCI  28
HEBRON         SUNNY     33  26  75 W7        29.94F WCI  26
HOLDREGE       SUNNY     38  26  63 W14       29.94S WCI  29
YORK           SUNNY     30  25  80 W12       29.91S WCI  21
$$

NEZ011>018-030>034-042>045-101700-
NORTHEAST NEBRASKA

CITY           SKY/WX    TMP DP  RH WIND       PRES   REMARKS
NORFOLK        SUNNY     28  22  78 S7        29.89F WCI  21
ALBION         SUNNY     27  22  82 CALM      29.89S
BLAIR          CLOUDY    29  19  67 S12       29.95F WCI  19
COLUMBUS *     CLOUDY    27  16  63 S6        29.92S WCI  20
FREMONT        CLOUDY    28  18  65 S8        29.94F WCI  20
WAYNE          CLOUDY    26  20  76 SE10      29.93F WCI  17
$$

NEZ050>053-065>068-078-088>093-101700-
SOUTHEAST NEBRASKA

CITY           SKY/WX    TMP DP  RH WIND       PRES   REMARKS
LINCOLN        CLOUDY    28  20  71 S9        29.95F WCI  19
OMAHA EPPLEY   CLOUDY    29  19  66 S13       29.98F WCI  19
BEATRICE       SUNNY     33  22  65 SW13      29.95F WCI  24
FALLS CITY     CLOUDY    32  14  47 S17       30.01F WCI  21
NEBRASKA CITY  CLOUDY    31  17  55 S12G20    29.98S WCI  22
PLATTSMOUTH    CLOUDY    29  18  61 S12G18    29.97S WCI  20
$$

NEZ044-045-051>053-067-101700-
OMAHA AREA

CITY           SKY/WX    TMP DP  RH WIND       PRES   REMARKS
OMAHA EPPLEY   CLOUDY    29  19  66 S13       29.98F WCI  19
BLAIR          CLOUDY    29  19  67 S12       29.95F WCI  19
FREMONT        CLOUDY    28  18  65 S8        29.94F WCI  20
MILLARD        CLOUDY    30  19  61 S6        29.97F WCI  24
OFFUTT AFB     PTSUNNY   30  18  60 SE10      29.97F WCI  21
PLATTSMOUTH    CLOUDY    29  18  61 S12G18    29.97S WCI  20
WAHOO          PTSUNNY   29  20  68 S8        29.95F WCI  22
$$



USA.gov is the U.S. government's official web portal to all federal, state and local government web resources and services.